[[{"header":{"parameterUnit":"m.s-1","parameterCategory":1,"la1":30.2991,"la2":30.254,"lo1":-89.0895,"lo2":-89.0444,"dy":0.0017,"dx":0.0017,"nx":28,"ny":28,"refTime":"2024-04-29T09:00:00:Z","depth":0,"parameterNumber":2,"parameterNumberName":"U-component_of_WINDS"},"data":[0,0,0,0,0,0,0,0,0,0,0,0,0,0,0,0,0,0,0,0,0,0,0,0,0,0,0,0,0,0,0,0,0,0,0,0,0,0,0,0,0,0,0,0,0,0,0,0,0,0,0,0,0,0,0,0,0,0,-0.3786,-0.3789,0,-0.4064,-0.4067,-0.407,-0.4212,-0.4212,-0.4212,-0.4212,-0.4493,-0.45,-0.4508,0,0,0,0,0,0,0,0,0,0,0,0,0,-0.3371,-0.3378,-0.3786,-0.3789,-0.3793,-0.4063,-0.4067,-0.4071,-0.4212,-0.4212,-0.4212,-0.4212,-0.4491,-0.45,-0.4508,0,0,0,0,0,0,0,0,0,0,0,0,0,-0.359,-0.338,-0.3785,-0.3896,-0.3908,-0.4062,-0.4067,-0.4072,-0.4212,-0.4212,-0.4212,-0.4212,-0.4488,-0.4499,-0.451,-0.4574,0,0,-0.4543,-0.4548,0,0,0,0,0,0,0,0,-0.3577,-0.3605,-0.3876,-0.3888,-0.3903,-0.4103,-0.4024,-0.424,-0.4212,-0.4096,-0.4212,-0.4212,-0.4363,-0.4384,-0.4436,-0.4587,-0.4599,-0.4544,-0.4551,-0.4556,-0.4559,0,0,0,0,0,0,0,-0.3562,-0.3594,-0.3896,-0.388,-0.3896,-0.3929,-0.3961,-0.4066,-0.4225,-0.4106,-0.4117,-0.4149,-0.437,-0.4425,-0.4444,-0.4603,-0.4544,-0.4554,-0.4561,-0.4565,-0.4817,-0.4817,0,0,0,0,0,0,-0.353,-0.358,-0.3887,-0.3904,-0.3737,-0.3937,-0.3972,-0.4039,-0.4224,-0.4253,-0.4148,-0.4154,-0.4406,-0.4431,-0.4454,-0.4541,-0.4556,-0.4566,-0.4572,-0.4817,-0.4817,-0.4817,0,0,0,0,0,0,-0.352,-0.3556,-0.3876,-0.3745,-0.3789,-0.3944,-0.4018,-0.4044,-0.4099,-0.4256,-0.4285,-0.4175,-0.4407,-0.4439,-0.4543,-0.4552,-0.4571,-0.4581,-0.4817,-0.4817,-0.4817,-0.4714,0,0,0,0,0,0,-0.3508,-0.3552,-0.3579,-0.3745,-0.3795,-0.3961,-0.4018,-0.4049,-0.4118,-0.4129,-0.4289,-0.4316,-0.441,-0.4525,-0.4553,-0.4568,-0.459,-0.4817,-0.4817,-0.4817,-0.4717,-0.471,-0.4704,0,0,0,0,0,-0.3492,-0.3539,-0.358,-0.3616,-0.3833,-0.3961,-0.399,-0.4099,-0.4118,-0.4146,-0.4246,-0.431,-0.4546,-0.4535,-0.4568,-0.4585,-0.4817,-0.4817,-0.4817,-0.472,-0.4711,-0.4705,0,0,0,0,0,0,-0.3371,-0.3563,-0.3611,-0.3713,-0.3819,-0.3985,-0.4025,-0.4087,-0.419,-0.4195,-0.4324,-0.4359,-0.445,-0.4528,-0.4512,-0.4655,-0.4687,-0.4694,-0.4602,-0.4596,-0.4589,-0.4569,-0.4599,0,0,0,0,0,-0.3356,-0.3445,-0.3608,-0.3682,-0.3733,-0.3868,-0.3929,-0.4003,-0.4118,-0.4164,-0.4272,-0.438,-0.4479,-0.4541,-0.4641,-0.4727,-0.4763,-0.4755,-0.4749,-0.4743,-0.4748,-0.4797,-0.4795,-0.4818,-0.4818,-0.4818,0,0,-0.3326,-0.3442,-0.3491,-0.366,-0.3752,-0.384,-0.3906,-0.3997,-0.4063,-0.4178,-0.4283,-0.4365,-0.4494,-0.4589,-0.4636,-0.4657,-0.4749,-0.4743,-0.4737,-0.4746,-0.4797,-0.4795,-0.4793,-0.4818,-0.4818,-0.4818,0,0,-0.3317,-0.3414,-0.3486,-0.3575,-0.3713,-0.3802,-0.3818,-0.3974,-0.4033,-0.4141,-0.4228,-0.4306,-0.4473,-0.4561,-0.4628,-0.4646,-0.4708,-0.4674,-0.4642,-0.4689,-0.4687,-0.4686,-0.4692,-0.4692,-0.4678,-0.4678,-0.4677,0,-0.3263,-0.3401,-0.3514,-0.36,-0.3671,-0.3777,-0.3849,-0.393,-0.4092,-0.4138,-0.4158,-0.4368,-0.4462,-0.4578,-0.4582,-0.4633,-0.4654,-0.4658,-0.4678,-0.4678,-0.4679,-0.4686,-0.4688,-0.4673,-0.4673,-0.4674,-0.4674,0,-0.3326,-0.3419,-0.346,-0.3614,-0.3689,-0.3767,-0.389,-0.3952,-0.4017,-0.4103,-0.4209,-0.4325,-0.4449,-0.4481,-0.4547,-0.4605,-0.4614,-0.4654,-0.4689,-0.467,-0.4679,-0.4682,-0.4665,-0.4667,-0.4669,-0.467,0,0,-0.3253,-0.3465,-0.3479,-0.3549,-0.3706,-0.378,-0.386,-0.3981,-0.4031,-0.4137,-0.4207,-0.4343,-0.4381,-0.4456,-0.4531,-0.4571,-0.4576,-0.4607,-0.4612,-0.4597,-0.4646,-0.4616,-0.4617,-0.4617,-0.4618,-0.4619,-0.4636,0,-0.3266,-0.3419,-0.3521,-0.3632,-0.3719,-0.3818,-0.3888,-0.399,-0.4071,-0.4155,-0.4243,-0.4338,-0.4381,-0.4426,-0.447,-0.4566,-0.4588,-0.4566,-0.4682,-0.4685,-0.4649,-0.4622,-0.4591,-0.4602,-0.464,-0.464,-0.4641,0,-0.3304,-0.3407,-0.3527,-0.3672,-0.3712,-0.3773,-0.3891,-0.3969,-0.4085,-0.4141,-0.4222,-0.4298,-0.4385,-0.4409,-0.4529,-0.4512,-0.4565,-0.4618,-0.4621,-0.4638,-0.4663,-0.4638,-0.4608,-0.4609,-0.4647,-0.4647,-0.4646,0,-0.3238,-0.3407,-0.35,-0.3556,-0.3728,-0.3768,-0.3841,-0.3957,-0.4022,-0.4123,-0.4167,-0.4276,-0.4336,-0.4417,-0.4519,-0.4528,-0.4628,-0.4662,-0.4675,-0.4673,-0.4694,-0.4692,-0.4673,-0.4725,-0.4725,-0.4725,-0.4725,0,-0.3244,-0.3313,-0.3472,-0.353,-0.3609,-0.3723,-0.3798,-0.3879,-0.398,-0.4053,-0.4145,-0.421,-0.4341,-0.4422,-0.4501,-0.4587,-0.4614,-0.466,-0.468,-0.4653,-0.4647,-0.4691,-0.4693,-0.4726,-0.4726,-0.4726,-0.4725,0,-0.3186,-0.3295,-0.3403,-0.3555,-0.3594,-0.3646,-0.3775,-0.3833,-0.3916,-0.4007,-0.4034,-0.4166,-0.4265,-0.4374,-0.451,-0.4564,-0.4645,-0.4674,-0.4606,-0.4618,-0.4626,-0.4623,-0.4635,-0.4642,-0.4688,-0.4687,-0.4687,0,-0.3183,-0.3238,-0.3395,-0.3451,-0.3521,-0.3609,-0.3676,-0.3788,-0.3853,-0.3987,-0.4028,-0.4134,-0.4226,-0.4379,-0.4485,-0.4589,-0.4621,-0.4618,-0.4638,-0.4607,-0.4622,-0.4617,-0.4623,-0.4613,-0.4612,-0.4611,-0.461,0,-0.3166,-0.3216,-0.3309,-0.342,-0.3496,-0.3588,-0.3684,-0.3723,-0.3854,-0.3922,-0.4025,-0.4095,-0.4233,-0.4336,-0.4452,-0.4525,-0.4588,-0.4602,-0.4611,-0.4584,-0.4543,-0.4565,-0.4591,-0.4603,-0.4603,-0.4604,-0.4604,-0.4605,-0.3137,-0.3189,-0.3307,-0.3406,-0.3489,-0.3576,-0.3637,-0.3727,-0.3815,-0.3937,-0.3997,-0.4098,-0.4209,-0.4371,-0.4441,-0.452,-0.4541,-0.4553,-0.4557,-0.4559,-0.4551,-0.4528,-0.4542,-0.4542,-0.4542,-0.4543,-0.4543,0,-0.3125,-0.3204,-0.3294,-0.3424,-0.3501,-0.3554,-0.3661,-0.3721,-0.381,-0.3908,-0.3995,-0.4111,-0.4211,-0.4323,-0.4429,-0.4471,-0.4502,-0.4495,-0.4494,-0.4509,-0.4527,-0.4509,-0.4467,-0.4467,-0.4467,-0.4467,-0.4467,-0.4467,-0.3128,-0.322,-0.3283,-0.3415,-0.3494,-0.3595,-0.3652,-0.373,-0.3809,-0.3935,-0.4018,-0.409,-0.4193,-0.4307,-0.4399,-0.4429,-0.4464,-0.4448,-0.4486,-0.4502,-0.4508,-0.4514,-0.4498,-0.4454,-0.4454,-0.4462,-0.4462,-0.4462]},{"header":{"parameterUnit":"m.s-1","parameterCategory":1,"la1":30.2991,"la2":30.254,"lo1":-89.0895,"lo2":-89.0444,"dy":0.0017,"dx":0.0017,"nx":28,"ny":28,"refTime":"2024-04-29T09:00:00:Z","depth":0,"parameterNumber":3,"parameterNumberName":"V-component_of_WINDS"},"data":[0,0,0,0,0,0,0,0,0,0,0,0,0,0,0,0,0,0,0,0,0,0,0,0,0,0,0,0,0,0,0,0,0,0,0,0,0,0,0,0,0,0,0,0,0,0,0,0,0,0,0,0,0,0,0,0,0,0,6.7324,6.7328,0,6.7668,6.7671,6.7675,6.776,6.7758,6.7756,6.7754,6.8084,6.8095,6.8105,0,0,0,0,0,0,0,0,0,0,0,0,0,6.672,6.6731,6.7324,6.7328,6.7333,6.7667,6.7672,6.7676,6.7761,6.7758,6.7756,6.7753,6.8081,6.8093,6.8106,0,0,0,0,0,0,0,0,0,0,0,0,0,6.7014,6.6734,6.7323,6.7416,6.7428,6.7666,6.7672,6.7677,6.7761,6.7758,6.7755,6.7752,6.8076,6.8092,6.8108,6.8273,0,0,6.8158,6.8165,0,0,0,0,0,0,0,0,6.6997,6.7036,6.7398,6.741,6.7423,6.7668,6.758,6.7876,6.7762,6.7634,6.7754,6.775,6.7947,6.7974,6.8044,6.8288,6.8302,6.8159,6.8169,6.8176,6.818,0,0,0,0,0,0,0,6.6977,6.7022,6.7459,6.7403,6.7419,6.7433,6.7471,6.7636,6.7803,6.7645,6.7652,6.7692,6.7953,6.8029,6.8053,6.8307,6.8159,6.8173,6.8183,6.8189,6.87,6.8704,0,0,0,0,0,0,6.6943,6.7004,6.7448,6.747,6.7199,6.7446,6.7489,6.7592,6.7802,6.7832,6.7695,6.7695,6.8003,6.8034,6.8065,6.8271,6.8176,6.8191,6.82,6.8696,6.8701,6.8705,0,0,0,0,0,0,6.693,6.6982,6.7435,6.7239,6.7298,6.746,6.7576,6.7601,6.7677,6.7841,6.7868,6.7743,6.8001,6.8042,6.8221,6.8284,6.8198,6.8213,6.8691,6.8697,6.8703,6.8685,0,0,0,0,0,0,6.6913,6.6977,6.7047,6.7241,6.7308,6.7592,6.758,6.761,6.7707,6.7711,6.7893,6.792,6.8002,6.8197,6.8237,6.8304,6.8226,6.8687,6.8694,6.8701,6.8681,6.8689,6.8697,0,0,0,0,0,6.6891,6.7024,6.705,6.7103,6.74,6.7596,6.7634,6.7732,6.7712,6.778,6.7884,6.7914,6.827,6.8214,6.8261,6.8334,6.8683,6.8692,6.87,6.8677,6.8688,6.8697,0,0,0,0,0,0,6.6826,6.7051,6.7082,6.7284,6.7421,6.761,6.7699,6.774,6.788,6.7877,6.7986,6.8026,6.8198,6.8283,6.8217,6.8502,6.8475,6.8494,6.8442,6.8453,6.8461,6.8437,6.8239,0,0,0,0,0,6.6836,6.6984,6.7169,6.7328,6.7396,6.7536,6.7624,6.7689,6.7832,6.7889,6.8006,6.8138,6.828,6.8371,6.851,6.8692,6.8731,6.8765,6.8773,6.8778,6.8793,6.8894,6.891,6.8733,6.8733,6.8733,0,0,6.6856,6.6998,6.7083,6.7319,6.7433,6.7577,6.7584,6.7736,6.7842,6.7909,6.8089,6.8179,6.8332,6.8514,6.86,6.859,6.885,6.879,6.8793,6.8805,6.8904,6.8921,6.8936,6.8739,6.8738,6.8737,0,0,6.6969,6.7092,6.7239,6.7353,6.7528,6.762,6.7654,6.7838,6.7903,6.8086,6.8139,6.8262,6.8504,6.8612,6.8698,6.8849,6.888,6.889,6.8932,6.9029,6.9043,6.9056,6.9109,6.9127,6.8904,6.8904,6.8904,0,6.6971,6.7198,6.7306,6.7458,6.7558,6.7632,6.7777,6.788,6.8088,6.8152,6.814,6.8446,6.8555,6.8762,6.8799,6.8866,6.8905,6.8871,6.9034,6.9048,6.9061,6.9113,6.9132,6.8904,6.8904,6.8904,6.8904,0,6.7191,6.7346,6.7442,6.765,6.776,6.7906,6.803,6.8127,6.818,6.8271,6.8452,6.8586,6.8753,6.8806,6.8857,6.902,6.9009,6.9013,6.8989,6.9077,6.9127,6.9147,6.8904,6.8904,6.8904,6.8904,0,0,6.7274,6.754,6.7574,6.7668,6.7865,6.7984,6.813,6.8302,6.8382,6.852,6.8644,6.8846,6.8853,6.895,6.9012,6.9097,6.9207,6.9092,6.9097,6.9109,6.9392,6.9388,6.941,6.9228,6.9232,6.9236,6.9379,0,6.7411,6.7687,6.7787,6.801,6.8153,6.8223,6.8351,6.8481,6.8568,6.8696,6.8788,6.8932,6.8929,6.8988,6.9075,6.9175,6.9265,6.9166,6.9339,6.9344,6.93,6.9437,6.9434,6.9563,6.9399,6.9403,6.9405,0,6.7609,6.7759,6.7998,6.8178,6.8241,6.8355,6.8519,6.8642,6.8788,6.8845,6.8954,6.9011,6.916,6.9125,6.933,6.926,6.9335,6.9394,6.9401,6.9422,6.9381,6.946,6.9607,6.9626,6.9437,6.9435,6.9432,0,6.7647,6.7906,6.8084,6.8162,6.8375,6.8453,6.8544,6.8689,6.8784,6.8923,6.8985,6.9137,6.922,6.9333,6.9426,6.9392,6.9621,6.9594,6.9668,6.9666,6.9715,6.9711,6.9876,6.9761,6.9761,6.9761,6.976,0,6.779,6.7934,6.8104,6.8213,6.8373,6.8483,6.8636,6.873,6.8858,6.8981,6.9046,6.9158,6.9275,6.94,6.9473,6.963,6.9666,6.9712,6.973,6.9708,6.9702,6.976,6.9753,6.9766,6.9765,6.9764,6.9763,0,6.7861,6.7981,6.8179,6.8366,6.8415,6.8525,6.8681,6.8785,6.8875,6.9029,6.9071,6.9209,6.936,6.9465,6.9656,6.9704,6.9874,6.989,6.9827,6.9836,6.9905,6.9897,7.0114,7.0147,7.0009,7.001,7.0011,0,6.7946,6.8059,6.8259,6.835,6.8444,6.8588,6.8687,6.8796,6.8896,6.9071,6.9152,6.9309,6.9441,6.9677,6.9789,6.9935,6.9955,7.0021,6.9977,6.9951,6.9956,6.9949,6.996,7.0027,7.0028,7.0029,7.003,0,6.8084,6.8138,6.8283,6.8449,6.8567,6.8701,6.8834,6.8902,6.9033,6.9139,6.9299,6.9401,6.9599,6.9752,6.9909,6.9993,7.0032,7.0043,7.0068,7.0047,7.0006,7.0029,6.9847,7.0038,7.0037,7.0036,7.0036,7.0035,6.8165,6.8269,6.8427,6.8585,6.8698,6.8821,6.8929,6.9033,6.9171,6.9346,6.9399,6.9563,6.9701,6.9917,7.0004,7.0129,7.0123,7.0159,7.0169,7.0176,7.0176,6.9985,7.0157,7.0157,7.0157,7.0157,7.0157,0,6.8307,6.8412,6.8557,6.8745,6.8868,6.89,6.9048,6.9147,6.9293,6.9423,6.9553,6.9733,6.9881,7.0005,7.0156,7.0232,7.0253,7.0268,7.0264,7.0282,7.0172,7.0136,7.0248,7.0248,7.0248,7.0248,7.0248,7.0248,6.8396,6.8574,6.8645,6.8876,6.8978,6.9147,6.9228,6.9339,6.9444,6.9645,6.9771,6.9854,6.9979,7.014,7.0275,7.0307,7.0359,7.037,7.0406,7.0301,7.029,7.028,7.0247,7.0381,7.0381,7.0506,7.0507,7.0508]}]]